Location: Weatherford
(35.5260°N, 98.7070°W)
Time: 17:30:22
(UTC-05:00)

Amateur Radio Satellites - All Passes

Search period start: 27 April 2017 17:00
Search period end: 28 April 2017 17:00
Location: Weatherford, 35.5260°N, 98.7070°W

Satellite Date Start Highest point End Downlink Frequencies (MHz)
Time Altitude Azimuth
JUGNU 27 Apr 17:01:17 17:02:54 11° 166° (SSE) 17:04:32 437.505
YUBILEINY 27 Apr 17:13:37 17:22:10 61° 269° (W) 17:30:46 435.215
ITAMSAT 1 27 Apr 17:20:27 17:24:08 19° 265° (W) 17:27:49 435.822/435.867
SO-50 27 Apr 17:26:01 17:29:19 20° 250° (WSW) 17:32:37 436.795
CUBESAT XI-V 27 Apr 17:36:47 17:40:57 30° 97° (E) 17:45:05 437.345
ITUPSAT 1 27 Apr 17:40:07 17:43:39 21° 293° (WNW) 17:47:11 437.325
AO-7 27 Apr 17:48:44 17:55:05 24° 264° (W) 18:01:30 .
XW-2D 27 Apr 17:54:12 17:55:04 11° 67° (ENE) 17:55:56 145.860 - 145.880
XW-2B 27 Apr 18:00:21 18:01:59 13° 68° (ENE) 18:03:37 145.730 - 145.750
KAITUO 1B 27 Apr 18:07:40 18:09:06 12° 68° (ENE) 18:10:35 145.475/437.950
XW-2C 27 Apr 18:11:18 18:13:51 18° 70° (ENE) 18:16:24 145.795 - 145.815
LilacSat-2 27 Apr 18:11:24 18:14:04 19° 70° (ENE) 18:16:44 437.200
DOVE 4 27 Apr 18:15:36 18:20:36 44° 73° (ENE) 18:25:34 437.250
MOZHAYETS 4 27 Apr 18:21:40 18:24:08 15° 294° (WNW) 18:26:38
KKS-1 27 Apr 18:24:42 18:29:08 74° 285° (WNW) 18:33:31 437.445
NO-84 27 Apr 18:32:13 18:34:01 13° 124° (SE) 18:35:47 435.350 FM
CUTE-I 27 Apr 18:33:56 18:38:52 39° 71° (ENE) 18:43:48 437.470
XW-2F 27 Apr 18:35:05 18:38:27 34° 73° (ENE) 18:41:50 145.980 - 146.000
NUDT-PHONESAT 27 Apr 18:43:23 18:46:43 34° 74° (ENE) 18:50:04 437.300
JUGNU 27 Apr 18:47:32 18:51:08 17° 176° (S) 18:54:44 437.505
STARS 27 Apr 18:53:30 18:57:53 84° 284° (WNW) 19:02:13 437.465
RS-15 27 Apr 19:06:11 19:16:47 38° 255° (WSW) 19:26:59 29.354- 29.394
CUBESAT XI-V 27 Apr 19:14:25 19:18:07 23° 291° (WNW) 19:21:48 437.345
CUTE 1.7 + AOD 2 27 Apr 19:16:43 19:19:01 14° 67° (ENE) 19:21:19 437.475
XW-2D 27 Apr 19:25:17 19:28:50 42° 261° (W) 19:32:24 145.860 - 145.880
XW-2B 27 Apr 19:32:23 19:35:50 35° 262° (W) 19:39:17 145.730 - 145.750
SEEDS 27 Apr 19:34:34 19:36:55 15° 67° (ENE) 19:39:15 437.485
KAITUO 1B 27 Apr 19:39:22 19:42:46 35° 262° (W) 19:46:11 145.475/437.950
HO-68 27 Apr 19:40:24 19:47:09 47° 68° (ENE) 19:53:55 435.675
XW-2C 27 Apr 19:44:47 19:47:51 24° 264° (W) 19:50:57 145.795 - 145.815
LilacSat-2 27 Apr 19:45:09 19:48:10 23° 264° (W) 19:51:12 437.200
DOVE 4 27 Apr 19:54:35 19:58:22 20° 267° (W) 20:02:09 437.250
NO-84 27 Apr 20:07:34 20:11:20 54° 315° (NW) 20:14:46 435.350 FM
XW-2A 27 Apr 20:09:07 20:12:27 65° 77° (ENE) 20:15:46 145.665 - 145.685
XW-2F 27 Apr 20:11:09 20:12:41 12° 267° (W) 20:14:14 145.980 - 146.000
O/OREOS (USA 219) 27 Apr 20:12:03 20:15:29 21° 61° (ENE) 20:18:53 437.305
SRMSAT 27 Apr 20:12:54 20:15:48 14° 169° (S) 20:18:41 437.500
CUTE-I 27 Apr 20:14:54 20:18:59 22° 265° (W) 20:23:05 437.470
STRAND 1 27 Apr 20:15:16 20:19:36 27° 96° (E) 20:23:54 437.568
UWE-3 27 Apr 20:17:24 20:20:26 19° 70° (ENE) 20:23:26 435.000/436.395/437.385
NUDT-PHONESAT 27 Apr 20:19:28 20:20:44 11° 267° (W) 20:22:00 437.300
CUBEBUG 2 27 Apr 20:31:40 20:35:54 49° 75° (ENE) 20:40:02 437.445
JUGNU 27 Apr 20:36:00 20:39:23 16° 187° (S) 20:42:48 437.505
AAUSAT CUBESAT 2 27 Apr 20:37:23 20:41:12 36° 73° (ENE) 20:45:01 437.432
CUTE 1.7 + AOD 2 27 Apr 20:50:30 20:54:27 40° 262° (W) 20:58:27 437.475
SEEDS 27 Apr 21:08:19 21:12:13 39° 262° (W) 21:16:11 437.485
ZACube-1 27 Apr 21:09:08 21:13:07 42° 74° (ENE) 21:17:02 437.345
M-CUBED/EXP-1 PRIME 27 Apr 21:10:05 21:14:11 76° 108° (ESE) 21:17:55 437.505
AO-73 27 Apr 21:15:16 21:19:15 45° 74° (ENE) 21:23:13 145.935
AO-85 27 Apr 21:25:21 21:28:09 18° 51° (NE) 21:31:00 145.980
HO-68 27 Apr 21:29:00 21:34:59 29° 264° (W) 21:41:01 435.675
Oscar 11 27 Apr 21:29:06 21:33:18 56° 75° (ENE) 21:37:31 .
OBJECT BX 27 Apr 21:37:27 21:38:24 11° 67° (ENE) 21:39:22 145.990 - 145.960
O/OREOS (USA 219) 27 Apr 21:50:51 21:54:56 33° 256° (WSW) 21:58:58 437.305
UWE-3 27 Apr 21:52:57 21:56:42 29° 263° (W) 22:00:23 435.000/436.395/437.385
STRAND 1 27 Apr 21:54:18 21:58:41 30° 291° (WNW) 22:03:04 437.568
SRMSAT 27 Apr 22:00:23 22:04:13 17° 180° (S) 22:08:02 437.500
CUBEBUG 2 27 Apr 22:11:13 22:12:43 12° 268° (W) 22:14:12 437.445
AAUSAT CUBESAT 2 27 Apr 22:14:28 22:16:45 14° 267° (W) 22:19:03 437.432
PRISM 27 Apr 22:29:52 22:32:52 19° 95° (E) 22:35:51 437.425
DELFI C3 27 Apr 22:45:18 22:49:14 63° 260° (W) 22:53:13 145.870
ZACube-1 27 Apr 22:47:45 22:49:34 12° 267° (W) 22:51:21 437.345
BEESAT 3 27 Apr 22:51:39 22:55:04 26° 53° (NE) 22:58:26 437.485
AO-73 27 Apr 22:54:13 22:55:41 12° 268° (W) 22:57:09 145.935
BEESAT 2 27 Apr 22:54:51 22:56:21 12° 47° (NE) 22:57:50 435.950
TIGRISAT 27 Apr 23:03:15 23:06:57 28° 97° (E) 23:10:42 435.000
AO-85 27 Apr 23:04:53 23:08:35 35° 246° (WSW) 23:12:27 145.980
ESTCUBE 1 27 Apr 23:06:25 23:08:22 13° 65° (ENE) 23:10:20 437.505/2401.250
OBJECT BX 27 Apr 23:08:17 23:11:41 38° 261° (W) 23:15:06 145.990 - 145.960
Oscar 11 27 Apr 23:09:33 23:09:43 10° 269° (W) 23:09:54 .
UNISAT 6 27 Apr 23:24:27 23:28:41 55° 100° (E) 23:32:58 437.425
SRMSAT 27 Apr 23:49:36 23:52:38 14° 190° (S) 23:55:40 437.500
FO-29 27 Apr 23:52:01 23:57:18 75° 103° (ESE) 00:03:00 435.910
PRISM 28 Apr 00:04:36 00:08:07 28° 289° (WNW) 00:11:37 437.425
SPROUT 28 Apr 00:06:30 00:08:40 14° 67° (ENE) 00:10:50 437.525
LO-87 28 Apr 00:07:33 00:11:08 59° 259° (W) 00:14:44 145.935 - 145.965
EO-79 28 Apr 00:18:59 00:21:01 13° 93° (E) 00:23:04 145.935-145.965
AIST 2D 28 Apr 00:19:09 00:22:08 25° 97° (E) 00:25:06 435.315
DUCHIFAT 1 28 Apr 00:20:29 00:21:22 11° 92° (E) 00:22:15 145.980
BEESAT 3 28 Apr 00:29:21 00:32:30 22° 249° (WSW) 00:35:37 437.485
BEESAT 2 28 Apr 00:30:29 00:34:31 64° 243° (WSW) 00:38:29 435.950
50 SAT 28 Apr 00:34:52 00:36:43 14° 69° (ENE) 00:38:34 437.505
TIGRISAT 28 Apr 00:40:15 00:43:28 21° 291° (WNW) 00:46:43 435.000
ESTCUBE 1 28 Apr 00:40:16 00:44:39 54° 260° (W) 00:49:05 437.505/2401.250
VELOX 1 28 Apr 00:47:39 00:51:53 46° 73° (ENE) 00:56:11 145.980
POLYITAN 1 28 Apr 00:57:00 01:00:58 39° 99° (E) 01:04:54 437.675
UKube-1 28 Apr 01:01:05 01:03:45 16° 67° (ENE) 01:06:24 .
QB50P2 28 Apr 01:03:35 01:07:41 52° 100° (E) 01:11:48 145.880/145.840
UNISAT 6 28 Apr 01:03:35 01:04:54 11° 295° (WNW) 01:06:13 437.425
BUGSAT 1 28 Apr 01:15:38 01:17:48 14° 94° (E) 01:19:58 437.445
NANOSAT C BR1 28 Apr 01:24:04 01:28:16 79° 103° (ESE) 01:32:26 145.865
DX 1 28 Apr 01:34:56 01:39:14 59° 74° (ENE) 01:43:33 434.975-435.025
SPROUT 28 Apr 01:40:05 01:44:10 44° 261° (W) 01:48:16 437.525
FO-29 28 Apr 01:40:06 01:41:50 12° 297° (WNW) 01:43:38 435.910
EO-79 28 Apr 01:53:00 01:56:56 41° 287° (WNW) 02:00:52 145.935-145.965
AIST 2D 28 Apr 01:53:02 01:55:06 15° 290° (WNW) 01:57:10 435.315
DUCHIFAT 1 28 Apr 01:53:14 01:57:17 50° 286° (WNW) 02:01:18 145.980
50 SAT 28 Apr 02:06:23 02:09:22 27° 263° (W) 02:12:23 437.505
VELOX 1 28 Apr 02:26:20 02:28:32 13° 267° (W) 02:30:45 145.980
Oscar 19 28 Apr 02:26:35 02:31:16 33° 97° (E) 02:35:53 437.125/150
BEESAT 28 Apr 02:26:55 02:28:31 12° 63° (ENE) 02:30:06 436.000
POLYITAN 1 28 Apr 02:34:03 02:36:23 15° 293° (WNW) 02:38:43 437.675
UKube-1 28 Apr 02:35:23 02:39:25 38° 261° (W) 02:43:29 .
Gurwin Techsat 1B 28 Apr 02:39:43 02:44:05 25° 96° (E) 02:48:24 435.225
QB50P2 28 Apr 02:41:39 02:42:59 11° 295° (WNW) 02:44:19 145.880/145.840
NO-84 28 Apr 02:44:55 02:46:56 17° 37° (NE) 02:48:54 435.350 FM
BUGSAT 1 28 Apr 02:49:36 02:53:15 34° 288° (WNW) 02:56:54 437.445
PCSat 28 Apr 02:54:41 03:00:05 87° 298° (WNW) 03:05:32 145.827
ITUPSAT 1 28 Apr 03:05:39 03:09:46 30° 70° (ENE) 03:13:52 437.325
MOZHAYETS 4 28 Apr 03:41:58 03:46:00 32° 71° (ENE) 03:50:03
ITAMSAT 1 28 Apr 03:56:21 03:59:58 19° 94° (E) 04:03:35 435.822/435.867
AO-7 28 Apr 03:59:48 04:06:14 24° 96° (E) 04:12:38 .
BEESAT 28 Apr 04:00:58 04:05:41 67° 259° (WSW) 04:10:25 436.000
Oscar 19 28 Apr 04:06:08 04:10:22 26° 292° (WNW) 04:14:37 437.125/150
YUBILEINY 28 Apr 04:15:13 04:22:37 33° 85° (E) 04:30:01 435.215
Gurwin Techsat 1B 28 Apr 04:19:15 04:24:00 34° 290° (WNW) 04:28:45 435.225
NO-84 28 Apr 04:22:01 04:24:25 24° 233° (SW) 04:26:46 435.350 FM
CUBESAT XI-V 28 Apr 04:37:31 04:41:03 22° 68° (ENE) 04:44:35 437.345
PCSat 28 Apr 04:41:59 04:44:15 12° 314° (NW) 04:46:32 145.827
ITUPSAT 1 28 Apr 04:43:43 04:47:32 24° 264° (W) 04:51:21 437.325
KKS-1 28 Apr 05:19:18 05:23:44 69° 75° (ENE) 05:28:11 437.445
MOZHAYETS 4 28 Apr 05:19:52 05:23:10 20° 266° (W) 05:26:30
ITAMSAT 1 28 Apr 05:34:41 05:39:34 43° 289° (WNW) 05:44:26 435.822/435.867
STARS 28 Apr 05:46:43 05:51:02 57° 74° (ENE) 05:55:22 437.465
AO-7 28 Apr 05:51:14 05:59:26 65° 291° (WNW) 06:07:37 .
SO-50 28 Apr 05:56:49 06:00:27 23° 111° (ESE) 06:04:04 436.795
YUBILEINY 28 Apr 06:10:46 06:19:01 47° 283° (WNW) 06:27:21 435.215
CUBESAT XI-V 28 Apr 06:14:03 06:18:10 32° 263° (W) 06:22:21 437.345
DOVE 4 28 Apr 06:20:01 06:21:56 13° 91° (E) 06:23:48 437.250
CUTE-I 28 Apr 06:54:42 06:58:30 20° 94° (E) 07:02:18 437.470
XW-2D 28 Apr 07:00:58 07:04:00 22° 96° (E) 07:07:03 145.860 - 145.880
Tancredo 1 28 Apr 07:01:33 07:02:48 12° 127° (SE) 07:04:05 437.200
XW-2B 28 Apr 07:07:46 07:11:02 26° 97° (E) 07:14:17 145.730 - 145.750
RS-15 28 Apr 07:11:17 07:22:31 50° 108° (ESE) 07:34:05 29.354- 29.394
KAITUO 1B 28 Apr 07:13:29 07:16:38 24° 96° (E) 07:19:45 145.475/437.950
XW-2C 28 Apr 07:19:29 07:23:05 38° 98° (E) 07:26:40 145.795 - 145.815
LilacSat-2 28 Apr 07:20:21 07:24:01 41° 99° (E) 07:27:41 437.200
STARS 28 Apr 07:26:52 07:27:40 10° 268° (W) 07:28:29 437.465
STRAND 1 28 Apr 07:28:17 07:32:39 30° 69° (ENE) 07:37:02 437.568
ISS 28 Apr 07:33:58 07:36:34 22° 130° (SE) 07:39:10 437.550
SO-50 28 Apr 07:36:32 07:40:42 33° 306° (NW) 07:44:52 436.795
XW-2F 28 Apr 07:43:33 07:47:22 81° 102° (ESE) 07:51:11 145.980 - 146.000
AO-7 28 Apr 07:47:38 07:50:35 12° 310° (NW) 07:53:33 .
NUDT-PHONESAT 28 Apr 07:49:58 07:53:42 78° 101° (ESE) 07:57:26 437.300
M-CUBED/EXP-1 PRIME 28 Apr 07:51:43 07:56:14 59° 70° (ENE) 08:00:51 437.505
DOVE 4 28 Apr 07:55:36 07:59:56 46° 287° (WNW) 08:04:02 437.250
CUBEBUG 2 28 Apr 08:27:04 08:28:46 12° 93° (E) 08:30:28 437.445
CUTE-I 28 Apr 08:33:41 08:38:42 43° 289° (WNW) 08:43:41 437.470
XW-2D 28 Apr 08:35:13 08:38:03 20° 290° (WNW) 08:40:52 145.860 - 145.880
Tancredo 1 28 Apr 08:35:23 08:38:23 45° 321° (NW) 08:41:23 437.200
CUTE 1.7 + AOD 2 28 Apr 08:38:01 08:42:05 40° 98° (E) 08:46:07 437.475
XW-2B 28 Apr 08:42:26 08:45:00 17° 290° (WNW) 08:47:32 145.730 - 145.750
KAITUO 1B 28 Apr 08:47:49 08:50:26 18° 290° (WNW) 08:53:03 145.475/437.950
SEEDS 28 Apr 08:54:45 08:58:46 40° 98° (E) 09:02:46 437.485
XW-2C 28 Apr 08:55:18 08:56:54 12° 292° (WNW) 08:58:29 145.795 - 145.815
LilacSat-2 28 Apr 08:56:33 08:57:53 12° 293° (WNW) 08:59:14 437.200
HO-68 28 Apr 08:58:23 09:05:33 66° 103° (ESE) 09:12:41 435.675
ZACube-1 28 Apr 09:03:06 09:03:30 10° 92° (E) 09:03:55 437.345
XW-2A 28 Apr 09:06:19 09:09:40 73° 283° (WNW) 09:13:01 145.665 - 145.685
STRAND 1 28 Apr 09:07:26 09:11:44 28° 263° (W) 09:16:04 437.568
AO-73 28 Apr 09:08:19 09:09:21 11° 92° (E) 09:10:23 145.935
ISS 28 Apr 09:10:01 09:12:56 29° 325° (NW) 09:15:51 437.550
Oscar 11 28 Apr 09:20:57 09:22:59 13° 92° (E) 09:25:02 .
RS-15 28 Apr 09:23:29 09:35:00 49° 310° (NW) 09:46:55 29.354- 29.394
M-CUBED/EXP-1 PRIME 28 Apr 09:28:57 09:30:55 13° 264° (W) 09:32:55 437.505
UWE-3 28 Apr 09:44:26 09:48:38 64° 101° (E) 09:52:53 435.000/436.395/437.385
AAUSAT CUBESAT 2 28 Apr 09:57:14 10:01:26 76° 282° (WNW) 10:05:35 437.432
TIGRISAT 28 Apr 09:59:47 10:02:43 18° 68° (ENE) 10:05:37 435.000
CUBEBUG 2 28 Apr 10:01:35 10:05:34 44° 286° (WNW) 10:09:36 437.445
FO-29 28 Apr 10:02:20 10:07:03 23° 68° (ENE) 10:11:25 435.910
CUTE 1.7 + AOD 2 28 Apr 10:15:06 10:17:31 15° 293° (WNW) 10:19:57 437.475
UNISAT 6 28 Apr 10:20:26 10:24:22 33° 72° (ENE) 10:28:13 437.425
O/OREOS (USA 219) 28 Apr 10:20:31 10:24:46 39° 105° (ESE) 10:29:04 437.305
DELFI C3 28 Apr 10:26:03 10:28:58 19° 95° (E) 10:31:52 145.870
SEEDS 28 Apr 10:31:41 10:34:04 15° 293° (WNW) 10:36:27 437.485
ZACube-1 28 Apr 10:35:53 10:40:02 55° 285° (WNW) 10:44:16 437.345
OBJECT BX 28 Apr 10:40:24 10:43:09 20° 96° (E) 10:45:54 145.990 - 145.960
AO-73 28 Apr 10:41:41 10:45:48 52° 285° (WNW) 10:50:01 145.935
HO-68 28 Apr 10:47:25 10:52:37 22° 299° (WNW) 10:57:49 435.675
PRISM 28 Apr 10:49:53 10:53:57 60° 259° (WSW) 10:58:06 437.425
Oscar 11 28 Apr 10:55:09 10:59:18 45° 287° (WNW) 11:03:26 .
TIGRISAT 28 Apr 11:35:09 11:39:08 34° 262° (W) 11:43:04 435.000
AO-85 28 Apr 11:38:59 11:40:22 11° 109° (ESE) 11:41:43 145.980
LO-87 28 Apr 11:39:09 11:40:42 12° 93° (E) 11:42:14 145.935 - 145.965
RS-15 28 Apr 11:44:11 11:51:46 18° 340° (NNW) 11:59:24 29.354- 29.394
PCSat 28 Apr 11:45:45 11:50:50 39° 58° (ENE) 11:55:52 145.827
FO-29 28 Apr 11:45:47 11:51:54 45° 260° (W) 11:57:24 435.910
POLYITAN 1 28 Apr 11:47:10 11:50:18 21° 69° (ENE) 11:53:25 437.675
QB50P2 28 Apr 11:53:25 11:56:57 26° 71° (ENE) 12:00:29 145.880/145.840
UNISAT 6 28 Apr 11:58:09 12:01:06 18° 265° (W) 12:04:02 437.425
DELFI C3 28 Apr 12:00:22 12:03:41 25° 289° (WNW) 12:06:59 145.870
O/OREOS (USA 219) 28 Apr 12:01:12 12:04:19 18° 300° (WNW) 12:07:28 437.305
NANOSAT C BR1 28 Apr 12:13:02 12:16:54 37° 73° (ENE) 12:20:46 145.865
OBJECT BX 28 Apr 12:13:57 12:16:42 20° 289° (WNW) 12:19:27 145.990 - 145.960
AIST 2D 28 Apr 12:22:53 12:26:19 66° 260° (W) 12:29:47 435.315
ESTCUBE 1 28 Apr 12:35:40 12:39:55 38° 98° (E) 12:44:08 437.505/2401.250
DUCHIFAT 1 28 Apr 12:41:25 12:45:35 76° 77° (ENE) 12:49:47 145.980
EO-79 28 Apr 12:41:41 12:45:54 86° 261° (W) 12:50:07 145.935-145.965
VELOX 1 28 Apr 12:43:19 12:44:18 11° 92° (E) 12:45:17 145.980
LO-87 28 Apr 13:11:04 13:14:12 29° 287° (WNW) 13:17:18 145.935 - 145.965
AO-85 28 Apr 13:16:06 13:20:21 54° 301° (WNW) 13:24:22 145.980
POLYITAN 1 28 Apr 13:22:18 13:25:53 27° 263° (W) 13:29:30 437.675
DX 1 28 Apr 13:27:59 13:29:53 13° 93° (E) 13:31:46 434.975-435.025
SPROUT 28 Apr 13:28:37 13:32:33 36° 98° (E) 13:36:27 437.525
QB50P2 28 Apr 13:29:27 13:32:40 21° 265° (W) 13:35:54 145.880/145.840
PCSat 28 Apr 13:29:38 13:33:57 24° 253° (WSW) 13:38:15 145.827
50 SAT 28 Apr 13:32:47 13:35:26 20° 96° (E) 13:38:05 437.505
BUGSAT 1 28 Apr 13:35:25 13:39:34 81° 255° (WSW) 13:43:42 437.445
Oscar 19 28 Apr 13:40:27 13:45:06 36° 70° (ENE) 13:49:48 437.125/150
NANOSAT C BR1 28 Apr 13:50:20 13:52:43 15° 267° (W) 13:55:06 145.865
Gurwin Techsat 1B 28 Apr 13:57:49 14:02:25 31° 69° (ENE) 14:07:02 435.225
RS-15 28 Apr 14:04:16 14:11:39 17° 18° (NNE) 14:18:55 29.354- 29.394
ISS 28 Apr 14:04:47 14:06:09 12° 25° (NNE) 14:07:32 437.550
ESTCUBE 1 28 Apr 14:13:23 14:16:23 18° 293° (WNW) 14:19:22 437.505/2401.250
BEESAT 3 28 Apr 14:15:11 14:19:04 67° 300° (WNW) 14:23:03 437.485
VELOX 1 28 Apr 14:16:43 14:21:03 56° 286° (WNW) 14:25:21 145.980
BEESAT 2 28 Apr 14:18:45 14:22:29 43° 115° (ESE) 14:26:17 435.950
UKube-1 28 Apr 14:25:04 14:29:09 41° 99° (E) 14:33:12 .
YUBILEINY 28 Apr 14:31:03 14:34:27 12° 63° (ENE) 14:37:50 435.215
SO-50 28 Apr 14:32:11 14:33:28 11° 44° (NE) 14:34:44 436.795
AO-7 28 Apr 14:55:59 15:02:37 28° 59° (ENE) 15:09:13 .
DX 1 28 Apr 15:02:06 15:06:16 46° 287° (WNW) 15:10:25 434.975-435.025
Tancredo 1 28 Apr 15:03:13 15:06:10 41° 38° (NE) 15:09:07 437.200
SPROUT 28 Apr 15:05:31 15:08:07 16° 293° (WNW) 15:10:43 437.525
50 SAT 28 Apr 15:05:49 15:08:13 18° 290° (WNW) 15:10:35 437.505
ITAMSAT 1 28 Apr 15:11:27 15:15:25 23° 67° (ENE) 15:19:23 435.822/435.867
Oscar 19 28 Apr 15:20:23 15:24:26 23° 265° (W) 15:28:32 437.125/150
Gurwin Techsat 1B 28 Apr 15:37:45 15:42:17 28° 264° (W) 15:46:50 435.225
ISS 28 Apr 15:39:50 15:43:06 82° 43° (NE) 15:46:20 437.550
BEESAT 2 28 Apr 15:58:04 16:00:27 15° 311° (NW) 16:02:50 435.950
UKube-1 28 Apr 16:02:20 16:04:48 15° 294° (WNW) 16:07:15 .
BEESAT 28 Apr 16:04:06 16:08:34 38° 99° (E) 16:12:59 436.000
SO-50 28 Apr 16:10:00 16:14:31 86° 241° (WSW) 16:19:02 436.795
RS-15 28 Apr 16:16:53 16:28:34 47° 49° (NE) 16:39:39 29.354- 29.394
YUBILEINY 28 Apr 16:23:57 16:32:45 76° 83° (E) 16:41:33 435.215
Tancredo 1 28 Apr 16:40:12 16:41:46 13° 232° (SW) 16:43:19 437.200
JUGNU 28 Apr 16:45:38 16:47:45 12° 167° (SSE) 16:49:52 437.505
ITUPSAT 1 28 Apr 16:45:54 16:50:41 76° 285° (WNW) 16:55:27 437.325
ITAMSAT 1 28 Apr 16:49:48 16:54:36 38° 261° (W) 16:59:25 435.822/435.867
